Location: Melbourne
(37.8666°S, 145.1333°E)
Time: 15:54:10
(UTC+10:00)

Amateur Radio Satellites - All Passes

Search period start: 22 August 2014 15:24
Search period end: 23 August 2014 15:24
Location: Melbourne, 37.8666°S, 145.1333°E

Satellite Date Start Highest point End Downlink Frequencies (MHz)
Time Altitude Azimuth
KITSAT 1 22 Aug 15:26:07 15:31:24 18° 216° (SW) 15:36:43 435.175 FM
Oscar 16 22 Aug 15:32:59 15:35:18 13° 241° (WSW) 15:37:38 437.025 USB, Beacon 2401.1428
AO-27 22 Aug 15:34:22 15:38:51 28° 247° (WSW) 15:43:16 436.795 MHz FM
OPAL 22 Aug 15:35:58 15:41:07 66° 108° (ESE) 15:46:15 ?
Sapphire 22 Aug 15:45:44 15:51:05 54° 121° (ESE) 15:56:23 437.095 MHz 1200 baud AX-25 AFSK
Uosat F 22 Aug 15:46:21 15:50:21 23° 85° (E) 15:54:19 435.120 FM
TMSAT-1 22 Aug 16:04:13 16:09:21 46° 251° (WSW) 16:14:24 436.925 FM
PCSat 22 Aug 16:16:15 16:21:42 77° 295° (WNW) 16:27:05 145.825 MHz
AO-7 22 Aug 16:22:50 16:31:04 54° 78° (ENE) 16:39:12 29.400 - 29.500 MHz
JAS-1B 22 Aug 16:43:55 16:49:34 22° 241° (WSW) 16:55:48 435.800 - 435.900 CW/SSB
SO-50 22 Aug 16:44:42 16:48:38 25° 69° (ENE) 16:52:32 436.795 FM
Gurwin Techsat 1B 22 Aug 16:47:47 16:50:39 15° 242° (WSW) 16:53:30 435.225 FM
STRAND 1 22 Aug 17:05:41 17:08:58 17° 117° (ESE) 17:12:16 ?
OPAL 22 Aug 17:17:53 17:20:23 14° 273° (W) 17:22:53 ?
JAS-2 22 Aug 17:22:41 17:29:30 31° 87° (E) 17:36:01 435.800 - 435.900 CW/SSB, 435.910 FM
Uosat F 22 Aug 17:24:30 17:29:13 38° 250° (WSW) 17:33:53 435.120 FM
Sapphire 22 Aug 17:30:21 17:34:02 19° 285° (WNW) 17:37:41 437.095 MHz 1200 baud AX-25 AFSK
AO-40 22 Aug 17:51:57 01:50:00 54° 2° (N) 08:17:33 Beacon 2401.320
AO-7 22 Aug 18:16:11 18:23:26 34° 240° (WSW) 18:30:40 29.400 - 29.500 MHz
SO-50 22 Aug 18:24:31 18:29:01 37° 233° (SW) 18:33:28 436.795 FM
Hamsat 22 Aug 18:29:02 18:33:17 72° 256° (WSW) 18:37:29 145.90 MHz
STRAND 1 22 Aug 18:42:36 18:47:39 56° 281° (W) 18:52:47 ?
JAS-2 22 Aug 19:07:01 19:14:42 55° 250° (WSW) 19:22:06 435.800 - 435.900 CW/SSB, 435.910 FM
KITSAT 1 22 Aug 19:28:36 19:31:31 12° 153° (SSE) 19:34:26 435.175 FM
UOSAT-12 22 Aug 19:37:32 19:42:02 81° 239° (WSW) 19:46:31 437.025 FM, 437.400 FM
SO-67 22 Aug 19:42:02 19:45:32 60° 256° (WSW) 19:48:59 435.3500 MHz FM
RS-15 22 Aug 20:21:06 20:32:41 59° 69° (ENE) 20:44:36 29.354 - 29.394 USB, Beacon 29.352 USB
HO-68 22 Aug 20:49:49 20:56:36 41° 81° (E) 21:03:16 435.675 MHz FM
JAS-2 22 Aug 20:56:34 20:57:59 11° 232° (SW) 20:59:23 435.800 - 435.900 CW/SSB, 435.910 FM
UKube-1 22 Aug 21:08:14 21:12:06 29° 83° (E) 21:15:54 145.840 MHz, 145.915 MHz
KITSAT 1 22 Aug 21:21:46 21:29:28 43° 128° (SE) 21:37:05 435.175 FM
UOSAT-12 22 Aug 21:21:48 21:22:52 11° 221° (SW) 21:23:57 437.025 FM, 437.400 FM
Oscar 11 22 Aug 21:24:39 21:28:21 26° 84° (E) 21:32:00 145.825 FM, Beacon 2401.500 USB
Saudisat 1A 22 Aug 21:29:55 21:34:21 66° 122° (ESE) 21:38:44 436.775 MHz
RS-15 22 Aug 22:34:12 22:45:36 45° 226° (SW) 22:57:18 29.354 - 29.394 USB, Beacon 29.352 USB
HO-68 22 Aug 22:37:39 22:44:08 37° 244° (WSW) 22:50:34 435.675 MHz FM
UKube-1 22 Aug 22:44:35 22:48:08 24° 248° (WSW) 22:51:39 145.840 MHz, 145.915 MHz
FUNcube-1 22 Aug 22:59:54 23:04:18 66° 255° (WSW) 23:08:32 145.950 - 145.970 MHz USB
Oscar 11 22 Aug 23:00:52 23:04:25 25° 249° (WSW) 23:07:56 145.825 FM, Beacon 2401.500 USB
Saudisat 1A 22 Aug 23:11:58 23:13:20 11° 287° (WNW) 23:14:42 436.775 MHz
KITSAT 1 22 Aug 23:17:17 23:24:48 43° 289° (WNW) 23:32:17 435.175 FM
Oscar 16 22 Aug 23:32:03 23:33:10 11° 120° (ESE) 23:34:17 437.025 USB, Beacon 2401.1428
ISS 22 Aug 23:59:01 23:59:36 10° 54° (NE) 00:00:11 145.800 FM
Oscar 19 23 Aug 00:33:43 00:38:34 41° 109° (ESE) 00:43:26 437.125 CW, 437.150 USB
AO-Echo 23 Aug 00:37:37 00:41:09 20° 115° (ESE) 00:44:46 ?
ITAMSAT 1 23 Aug 00:45:28 00:49:37 24° 114° (ESE) 00:53:48 435.822 SSB
Gurwin Techsat 1B 23 Aug 00:49:46 00:51:24 11° 120° (ESE) 00:53:02 435.225 FM
RS-15 23 Aug 00:54:32 01:02:39 19° 194° (SSW) 01:10:47 29.354 - 29.394 USB, Beacon 29.352 USB
Uribyol 2 23 Aug 00:57:18 01:01:57 33° 112° (ESE) 01:06:39 436.500 FM
Oscar 16 23 Aug 01:06:29 01:11:41 89° 103° (ESE) 01:16:57 437.025 USB, Beacon 2401.1428
AO-27 23 Aug 01:11:00 01:15:55 43° 110° (ESE) 01:20:54 436.795 MHz FM
Oscar 10/S400 23 Aug 01:15:11 10:47:09 72° 346° (NNW) 11:33:10 145.825 - 145.975 CW/USB, Beacon 145.810 USB
SO-50 23 Aug 01:18:32 01:21:21 16° 136° (SE) 01:24:07 436.795 FM
ISS 23 Aug 01:32:29 01:35:52 74° 219° (SW) 01:39:18 145.800 FM
AO-7 23 Aug 01:33:24 01:36:38 13° 133° (SE) 01:39:52 29.400 - 29.500 MHz
JAS-1B 23 Aug 01:37:01 01:42:32 55° 109° (ESE) 01:48:25 435.800 - 435.900 CW/SSB
TMSAT-1 23 Aug 01:44:13 01:48:39 28° 113° (ESE) 01:53:08 436.925 FM
Oscar 19 23 Aug 02:14:04 02:18:01 22° 274° (W) 02:22:01 437.125 CW, 437.150 USB
AO-Echo 23 Aug 02:14:59 02:19:33 42° 278° (W) 02:24:20 ?
MaSat-1 23 Aug 02:16:26 02:18:31 18° 70° (ENE) 02:20:27 437.345 MHz
ITAMSAT 1 23 Aug 02:23:58 02:28:50 39° 278° (W) 02:33:47 435.822 SSB
Gurwin Techsat 1B 23 Aug 02:25:11 02:30:32 90° 284° (WNW) 02:35:57 435.225 FM
Uribyol 2 23 Aug 02:36:55 02:41:23 28° 276° (W) 02:45:55 436.500 FM
AO-27 23 Aug 02:51:37 02:55:34 22° 274° (W) 02:59:35 436.795 MHz FM
SO-50 23 Aug 02:57:50 03:02:22 64° 298° (WNW) 03:06:46 436.795 FM
Uosat F 23 Aug 02:57:55 03:02:07 27° 113° (ESE) 03:06:20 435.120 FM
ISS 23 Aug 03:11:05 03:13:07 15° 201° (SSW) 03:15:08 145.800 FM
RS-15 23 Aug 03:12:44 03:21:47 23° 157° (SSE) 03:30:36 29.354 - 29.394 USB, Beacon 29.352 USB
AO-7 23 Aug 03:19:35 03:27:42 62° 113° (ESE) 03:35:56 29.400 - 29.500 MHz
TMSAT-1 23 Aug 03:23:33 03:28:23 35° 277° (W) 03:33:17 436.925 FM
JAS-1B 23 Aug 03:30:15 03:33:46 17° 271° (W) 03:37:25 435.800 - 435.900 CW/SSB
PANSAT 23 Aug 03:46:56 03:49:11 15° 13° (NNE) 03:51:27 not established
OPAL 23 Aug 03:48:53 03:52:26 19° 84° (E) 03:55:56 ?
MaSat-1 23 Aug 03:54:15 03:55:24 12° 239° (WSW) 03:56:31 437.345 MHz
UOSAT-12 23 Aug 04:08:48 04:13:07 50° 124° (SE) 04:17:26 437.025 FM, 437.400 FM
Uosat F 23 Aug 04:36:13 04:40:44 33° 277° (W) 04:45:19 435.120 FM
AO-7 23 Aug 05:14:10 05:20:54 27° 275° (W) 05:27:44 29.400 - 29.500 MHz
PCSat 23 Aug 05:15:00 05:18:30 18° 75° (ENE) 05:22:01 145.825 MHz
JAS-2 23 Aug 05:16:22 05:22:27 60° 109° (ESE) 05:29:25 435.800 - 435.900 CW/SSB, 435.910 FM
Hamsat 23 Aug 05:20:16 05:24:31 63° 105° (ESE) 05:28:47 145.90 MHz
RS-15 23 Aug 05:25:34 05:37:39 61° 127° (SE) 05:49:06 29.354 - 29.394 USB, Beacon 29.352 USB
PANSAT 23 Aug 05:25:49 05:28:46 20° 0° (N) 05:31:44 not established
OPAL 23 Aug 05:26:44 05:31:30 44° 249° (WSW) 05:36:11 ?
UOSAT-12 23 Aug 05:50:18 05:52:49 15° 289° (WNW) 05:55:20 437.025 FM, 437.400 FM
SO-67 23 Aug 06:13:26 06:16:32 30° 107° (ESE) 06:19:41 435.3500 MHz FM
Sapphire 23 Aug 06:25:28 06:30:52 73° 65° (ENE) 06:36:19 437.095 MHz 1200 baud AX-25 AFSK
ISS 23 Aug 06:27:12 06:29:06 14° 160° (SSE) 06:31:00 145.800 FM
STRAND 1 23 Aug 06:55:01 07:00:11 58° 79° (E) 07:05:16 ?
PCSat 23 Aug 06:56:04 07:01:24 57° 239° (WSW) 07:06:46 145.825 MHz
JAS-2 23 Aug 07:03:32 07:08:06 21° 269° (W) 07:13:05 435.800 - 435.900 CW/SSB, 435.910 FM
PANSAT 23 Aug 07:06:02 07:08:22 15° 347° (NNW) 07:10:43 not established
HO-68 23 Aug 07:17:16 07:23:02 27° 119° (ESE) 07:28:49 435.675 MHz FM
RS-15 23 Aug 07:38:52 07:49:30 39° 286° (WNW) 07:59:43 29.354 - 29.394 USB, Beacon 29.352 USB
SO-67 23 Aug 07:47:58 07:49:40 13° 272° (W) 07:51:23 435.3500 MHz FM
UKube-1 23 Aug 08:02:33 08:05:51 21° 113° (ESE) 08:09:10 145.840 MHz, 145.915 MHz
ISS 23 Aug 08:02:59 08:06:23 67° 142° (SE) 08:09:45 145.800 FM
Sapphire 23 Aug 08:11:20 08:14:52 17° 227° (SW) 08:18:25 437.095 MHz 1200 baud AX-25 AFSK
Oscar 11 23 Aug 08:18:42 08:21:40 18° 113° (ESE) 08:24:40 145.825 FM, Beacon 2401.500 USB
STRAND 1 23 Aug 08:35:36 08:38:51 17° 243° (WSW) 08:42:05 ?
HO-68 23 Aug 09:03:10 09:10:13 58° 282° (WNW) 09:17:22 435.675 MHz FM
UKube-1 23 Aug 09:37:53 09:41:49 32° 278° (W) 09:45:49 145.840 MHz, 145.915 MHz
ISS 23 Aug 09:41:30 09:42:41 12° 307° (NW) 09:43:53 145.800 FM
Oscar 11 23 Aug 09:53:28 09:57:33 38° 278° (W) 10:01:40 145.825 FM, Beacon 2401.500 USB
FUNcube-1 23 Aug 09:53:46 09:58:25 79° 104° (ESE) 10:03:07 145.950 - 145.970 MHz USB
Saudisat 1A 23 Aug 11:35:20 11:38:58 26° 68° (ENE) 11:42:38 436.775 MHz
KITSAT 1 23 Aug 11:48:28 11:55:34 36° 73° (ENE) 12:02:44 435.175 FM
MaSat-1 23 Aug 12:09:40 12:12:26 34° 116° (ESE) 12:15:32 437.345 MHz
Oscar 19 23 Aug 12:48:20 12:51:34 17° 88° (E) 12:54:46 437.125 CW, 437.150 USB
Uribyol 2 23 Aug 13:13:35 13:15:59 13° 89° (E) 13:18:22 436.500 FM
Saudisat 1A 23 Aug 13:14:30 13:18:25 31° 232° (SW) 13:22:23 436.775 MHz
Oscar 16 23 Aug 13:20:25 13:25:12 36° 82° (E) 13:29:55 437.025 USB, Beacon 2401.1428
JAS-1B 23 Aug 13:21:36 13:27:56 23° 87° (E) 13:34:49 435.800 - 435.900 CW/SSB
AO-27 23 Aug 13:26:58 13:30:28 18° 87° (E) 13:33:56 436.795 MHz FM
KITSAT 1 23 Aug 13:42:55 13:50:41 50° 234° (SW) 13:58:33 435.175 FM
TMSAT-1 23 Aug 14:03:43 14:05:37 12° 90° (E) 14:07:30 436.925 FM
PCSat 23 Aug 14:04:32 14:06:50 13° 137° (SE) 14:09:07 145.825 MHz
AO-Echo 23 Aug 14:23:23 14:28:47 73° 78° (ENE) 14:34:07 ?
Oscar 19 23 Aug 14:26:10 14:31:12 53° 252° (WSW) 14:36:11 437.125 CW, 437.150 USB
ITAMSAT 1 23 Aug 14:38:18 14:43:38 87° 76° (ENE) 14:48:53 435.822 SSB
Gurwin Techsat 1B 23 Aug 14:43:31 14:48:38 43° 81° (E) 14:53:41 435.225 FM
Uribyol 2 23 Aug 14:50:39 14:55:55 68° 254° (WSW) 15:01:05 436.500 FM
Oscar 16 23 Aug 15:00:09 15:04:20 25° 247° (WSW) 15:08:29 437.025 USB, Beacon 2401.1428
OPAL 23 Aug 15:01:38 15:06:07 31° 114° (ESE) 15:10:35 ?
AO-27 23 Aug 15:05:07 15:10:16 52° 252° (WSW) 15:15:20 436.795 MHz FM
